Regional Weather Roundup
Issued by NWS

Home | Current Version | Previous Version | Graphics & Text | Print | Product List | Glossary On
Versions: 1 2 3 4 5 6 7 8 9 10 11 12 13 14 15 16 17 18 19 20 21 22 23 24 25 26 27 28 29 30 31 32 33 34 35 36 37 38 39 40 41 42 43 44 45 46 47 48 49 50
000
ASUS43 KDTX 050510
RWRMI
MICHIGAN HOURLY REGIONAL WEATHER ROUNDUP
NATIONAL WEATHER SERVICE DETROIT/PONTIAC MI
1200 AM EST THU MAR 05 2015

NOTE: "FAIR" INDICATES FEW OR NO CLOUDS BELOW 12,000 FEET WITH NO
SIGNIFICANT WEATHER AND/OR OBSTRUCTION TO VISIBILITY.

MIZ047>049-052>055-059>063-066>070-074>076-081>083-050600-
SOUTHEAST LOWER MICHIGAN

CITY           SKY/WX    TMP DP  RH WIND       PRES   REMARKS
ADRIAN         CLOUDY    16  -2  45 N14G22    30.25R WCI   2
ALMA           PTCLDY     6  -4  64 W7        30.29R WCI  -6
ANN ARBOR      CLOUDY    16  -1  47 NW12G24   30.24R WCI   3
BAD AXE        PTCLDY     9   0  69 NW6       30.21S WCI  -1
CARO           PTCLDY     8  -1  65 NW6       30.23F WCI  -2
DETROIT CITY   CLOUDY    19  -1  41 N14G24    30.23R WCI   6
DETROIT        CLOUDY    17   1  49 NW15G23   30.25R WCI   2
FLINT          CLOUDY    13   0  56 NW8       30.25R WCI   2
GROSSE ILE     CLOUDY    18   0  45 NW15      30.24R WCI   3
HILLSDALE      CLOUDY    15   0  51 N9G17     30.21R WCI   3
HOWELL         MOCLDY    13   1  58 NW9       30.24R WCI   0

CITY           SKY/WX    TMP DP  RH WIND       PRES   REMARKS
JACKSON        MOCLDY    13  -1  54 NW9       30.23S WCI   1
LAMBERTVILLE   CLOUDY    19   1  45 NW15G23   30.26R WCI   5
LANSING        PTCLDY    11  -1  58 NW8       30.27R WCI  -1
LAPEER         FAIR      12  -2  52 N7        30.22F WCI   2
MASON          PTCLDY    13  -1  52 NW12G20   30.25R WCI  -1
MONROE         CLOUDY    18   1  49 NW13      30.24R WCI   4
MT. CLEMENS    CLOUDY    16   1  51 N14       30.22R WCI   2
PONTIAC        CLOUDY    14  -1  51 NW13      30.21R WCI   0
PORT HOPE        N/A     12   1  61 NW17      30.20S WCI  -5
PORT HURON     CLOUDY    14   1  57 N10G17    30.24R WCI   1
TRI CITIES     PTCLDY    12   0  58 NW12      30.27R WCI  -2
TROY           CLOUDY    18  -1  42 NW9       30.25R WCI   7
SAGINAW HB     PTCLDY    12   1  62 NW9       30.26R WCI   0
$$
MIZ043>046-050>051-056>058-064>065-071>073-077>080-050600-
SOUTHWEST LOWER MICHIGAN

CITY           SKY/WX    TMP DP  RH WIND       PRES   REMARKS
BATTLE CREEK   MOCLDY    14   0  53 N7        30.26R WCI   4
BENTON HARBOR  PTCLDY    17   4  56 NW7       30.30R WCI   8
BIG RAPIDS     PTCLDY     7   0  71 NW6       30.25R WCI  -3
COLDWATER      CLOUDY    15   2  56 N12       30.24S WCI   2
FREMONT        FAIR       9   1  72 W6        30.28R WCI  -1
HOLLAND        PTCLDY    16   2  54 NW9G17    30.31R WCI   4
GRAND RAPIDS   PTCLDY    11  -3  53 NW9       30.28R WCI  -2
IONIA          FAIR      11  -1  57 NW7       30.27R WCI   0
KALAMAZOO      MOCLDY    14   1  56 N14       30.27R WCI  -1
LUDINGTON      CLOUDY    15   3  57 N9        30.29R WCI   4
MARSHALL       MOCLDY    13  -2  51 NW6       30.25R WCI   4
MOUNT PLEASANT MOCLDY     9   2  75 NW3       30.28R
MUSKEGON       CLOUDY    14   2  58 NW8       30.30R WCI   3
SOUTH HAVEN    CLOUDY    18   6  58 N9        30.30S WCI   7
$$
MIZ016>042-050600-
NORTHERN LOWER MICHIGAN

CITY           SKY/WX    TMP DP  RH WIND       PRES   REMARKS
ALPENA         PTCLDY     2  -7  66 W7        30.24R WCI -11
BEAVER ISLAND  CLEAR      2  -6  69 W7        30.29R WCI -10
BELLAIRE       MOCLDY    -2  -8  77 CALM      30.30R
CADILLAC       FLURRIES   2  -4  76 CALM      30.22R
CHARLEVOIX     PTCLDY     1  -6  70 CALM      30.32R
FRANKFORT      CLOUDY    11   0  61 NW9       30.31R WCI  -2
GAYLORD        MOCLDY    -1  -9  68 VRB5      30.19R WCI -11
GRAYLING       PTCLDY    -7 -11  82 CALM      30.24R
HARBOR SPRINGS PTCLDY     2  -8  61 W6        30.27R WCI  -9
HOUGHTON LAKE  CLEAR      1  -4  79 NW3       30.24R
MANISTEE       CLOUDY    12   0  57 N12       30.29R WCI  -2
OSCODA         CLEAR      4  -4  67 NW3       30.26F
PELLSTON       PTCLDY    -3  -9  75 W7        30.26R WCI -16
ROGERS CITY    CLOUDY     4  -4  69 W12       30.25S WCI -12
TRAVERSE CITY  CLOUDY     3  -4  72 CALM      30.30R
$$
MIZ007>008-015-050600-
EASTERN UPPER MICHIGAN

CITY           SKY/WX    TMP DP  RH WIND       PRES   REMARKS
KINROSS        CLEAR     -6  -8  92 W7        30.21F WCI -20
MACKINAC ISLAN PTCLDY    -1  -5  81 W7        30.24R WCI -14
NEWBERRY       PTCLDY    -6  -8  91 W8        30.22R WCI -22
S. S. MARIE    LGT SNOW  -2  -8  76 W9        30.21R WCI -18
MUNISING         N/A      3  -4  72 W8        30.28R WCI -10
$$
MIZ004>006-011>014-085-050600-
CENTRAL UPPER MICHIGAN

CITY           SKY/WX    TMP DP  RH WIND       PRES   REMARKS
MANISTIQUE     CLEAR     -4 -10  74 W6        30.28R WCI -17
ESCANABA       PTCLDY    -4 -13  65 W7        30.32R WCI -18
MENOMINEE      PTCLDY     1 -11  55 NW6       30.33R WCI -10
SAWYER-GWINN   PTCLDY    -5 -11  76 W8        30.23R WCI -20
$$
MIZ001>003-009>011-084-050600-
WESTERN UPPER MICHIGAN

CITY           SKY/WX    TMP DP  RH WIND       PRES   REMARKS
IRON MOUNTAIN  CLEAR     -3 -14  59 W6        30.25R WCI -15
HOUGHTON       CLEAR     -8 -14  74 NW8       30.24R WCI -24
COPPER HARBOR    N/A      5  -5  63 N10       30.26R WCI -10
IRONWOOD       PTCLDY    -2  -8  78 SW9       30.26R WCI -18
$$

ABBREVIATIONS USED IN REMARKS
   TC - TEMPERATURE IN CELSIUS
  WCI - WIND CHILL INDEX
   HX - HEAT INDEX
  VSB - VISIBILITY



USA.gov is the U.S. government's official web portal to all federal, state and local government web resources and services.